Regional Weather Roundup
Issued by NWS

Home | Current Version | Previous Version | Graphics & Text | Print | Product List | Glossary On
Versions: 1 2 3 4 5 6 7 8 9 10 11 12 13 14 15 16 17 18 19 20 21 22 23 24 25 26 27
000
ASUS45 KPSR 272210
RWRAZ

ARIZONA HOURLY REGIONAL WEATHER ROUNDUP
NATIONAL WEATHER SERVICE PHOENIX AZ
300 PM MST WED JUL 27 2016

NOTE: FAIR INDICATES FEW OR NO CLOUDS BELOW 12,000 FEET WITH NO
SIGNIFICANT WEATHER AND/OR OBSTRUCTIONS TO VISIBILITY.

AZZ001>003-036-272300-
NORTHWEST ARIZONA

CITY           SKY/WX    TMP DP  RH WIND       PRES   REMARKS
BULLHEAD CITY  SUNNY    117  48  10 SW12      29.71F HX 112
KINGMAN        MOSUNNY  104  47  14 S12G20    29.99R HX 100
$$

AZZ004>008-015-016-018-272300-
NORTH CENTRAL ARIZONA

CITY           SKY/WX    TMP DP  RH WIND       PRES   REMARKS
GRAND CANYON   SUNNY     94  27   9 CALM      30.27F
WILLIAMS       MOSUNNY   88  46  23 SW14G20   30.35F
PRESCOTT       TSTM      88  48  25 W16G31    30.14S
FLAGSTAFF      MOSUNNY   85  47  26 SW10      30.29F
PAYSON         MOSUNNY   95  50  21 W10       30.12F HAZE
PAGE           SUNNY    103  22   5 CALM      30.03F
$$

AZZ009>014-017-272300-
NORTHEAST ARIZONA

CITY           SKY/WX    TMP DP  RH WIND       PRES   REMARKS
WINSLOW        LGT RAIN  88  49  25 SW17G26   30.10F
SAINT JOHNS    MOSUNNY   93  38  14 N13G21    30.12F
WINDOW ROCK    SUNNY     93  29  10 NE13G23   30.25F
SHOW LOW       MOSUNNY   90  39  17 N14G31    30.22F
$$

AZZ023-272300-
GREATER PHOENIX AREA

CITY           SKY/WX    TMP DP  RH WIND       PRES   REMARKS
PHOENIX        MOSUNNY  109  58  18 W14G21    29.75F HX 109
BUCKEYE          N/A    109  54  16 SW7       29.78F HX 108
GLENDALE       MOSUNNY  111  57  17 S13G21    29.77F HX 111
LUKE AFB       SUNNY    110  57  17 SW12G23   29.74F HX 110
DEER VALLEY    SUNNY    108  58  19 N9G24     29.78F HX 108
SCOTTSDALE     SUNNY    109  56  17 W8        29.80F HX 108
MESA-FALCON    MOSUNNY  N/A N/A N/A W14       29.76F
MESA-GATEWAY   MOSUNNY  106  61  23 NW7G16    29.79F HX 107
CHANDLER       MOSUNNY  109  57  18 SW9       29.77F HX 109
$$

AZZ027-028-272300-
SOUTHWEST MARICOPA COUNTY AND PINAL COUNTY

CITY           SKY/WX    TMP DP  RH WIND       PRES   REMARKS
CASA GRANDE    SUNNY    109  57  18 W16G23    29.82F HX 109
GILA BEND      MOSUNNY  111  56  16 SW12G21   29.74F HX 110
$$

AZZ503-504-507>509-272300-
SOUTHEAST ARIZONA

CITY           SKY/WX    TMP DP  RH WIND       PRES   REMARKS
TUCSON         SUNNY    103  58  22 N12       29.90F HX 102
DAVIS-MONTHAN  SUNNY    101  59  24 N14       29.89F HX 101
RYAN FIELD     SUNNY    102  57  22 NW10G23   29.90F HX 101
NOGALES        MOSUNNY   95  59  30 W8        30.02F
SIERRA VISTA   MOSUNNY   91  55  29 VRB2      30.07F
DOUGLAS        MOSUNNY   92  61  35 E10       30.03F
SAFFORD        LGT RAIN  81  64  56 N12G21    29.91F
$$

AZZ020-021-025-026-031-272300-
SOUTHWEST ARIZONA

CITY           SKY/WX    TMP DP  RH WIND       PRES   REMARKS
YUMA           PTSUNNY  111  60  19 S14       29.73F HX 112
$$

CAZ031-033-041-043-047-048-061-272300-
SOUTHERN CALIFORNIA

CITY           SKY/WX    TMP DP  RH WIND       PRES   REMARKS
DOWNTOWN L.A.  SUNNY     84  58  40 VRB3      29.89S
L.A. AIRPORT   MOSUNNY   79  65  62 W16       29.91F
SAN DIEGO      MOSUNNY   79  65  62 W7        29.92F
BURBANK        SUNNY     94  45  18 S13G20    29.89F
ONTARIO        MOSUNNY  100  48  17 W12       29.89F
RIVERSIDE      SUNNY    100  48  17 W13G22    29.88F
PALM SPRINGS   SUNNY    113  53  14 E6        29.74F HX 111
EL CENTRO NAS  PTSUNNY  114  54  14 S12       29.71F HX 112
IMPERIAL       PTSUNNY  114  64  20 E10G16    29.69F HX 119
BLYTHE         SUNNY    114  57  15 S17       29.72F HX 114
NEEDLES        CLOUDY   117  53  12 S12G20    29.73F HX 114
$$

NVZ020-UTZ003-272300-
SOUTHERN NEVADA-UTAH

CITY           SKY/WX    TMP DP  RH WIND       PRES   REMARKS
LAS VEGAS      MOSUNNY  112  40   9 NE9       29.80F HX 106
SALT LAKE CITY MOSUNNY  100  30   8 N9        30.08F
$$

NMZ009-TXZ055-272300-
NEW MEXICO-WEST TEXAS

CITY           SKY/WX    TMP DP  RH WIND       PRES   REMARKS
ALBUQUERQUE    CLOUDY    93  50  23 W6        30.13F
EL PASO        MOSUNNY   94  55  26 E8        30.01F THUNDER
$$


........................KEY........................
SKY/WX - SKY CONDITION/WEATHER
TMP    - TEMPERATURE IN FAHRENHEIT
DP     - DEW POINT IN FAHRENHEIT
RH     - RELATIVE HUMIDITY IN PERCENT
WIND   - DIRECTION AND SPEED IN MILES PER HOUR (MPH)
VRB    - VARIABLE WIND DIRECTION
PRES   - MEAN SEA LEVEL PRESSURE IN INCHES OF MERCURY
         F - FALLING PRESSURE   R - RISING PRESSURE
         S - STEADY PRESSURE
VSB    - VISIBILITY IN MILES
HX     - HEAT INDEX IN FAHRENHEIT
WCI    - WIND CHILL INDEX IN FAHRENHEIT
TC     - TEMPERATURE IN CELSIUS WHICH IS ALSO KNOWN AS
         TEMPERATURE IN CENTIGRADE
AFB    - AIR FORCE BASE
         LUKE AFB IS LUKE AIR FORCE BASE
         DAVIS-MONTHAN IS DAVIS-MONTHAN AIR FORCE BASE
NAS    - NAVAL AIR STATION
         EL CENTRO NAS IS EL CENTRO NAVAL AIR STATION
N/A    - NOT AVAILABLE





USA.gov is the U.S. government's official web portal to all federal, state and local government web resources and services.